Ukiah, CA

10:55 AM PST on February 10, 2016 (GMT -0800)
Ukiah Municipal

Weather History for KUKI - July, 2012

Change the Weather History Date:

Thursday, July 5, 2012

  Actual Average Record
Temperature  
Mean Temperature 69 °F 73 °F  
Max Temperature 87 °F 90 °F 108 °F (1931)
Min Temperature 51 °F 56 °F 44 °F (1916)
Degree Days  
Heating Degree Days 0 0  
Month to date heating degree days 0 0  
Since 1 June heating degree days 63 32  
Since 1 July heating degree days 0 0  
Cooling Degree Days 4 8  
Month to date cooling degree days 40 37  
Year to date cooling degree days 218 201  
Since 1 June cooling degree days 156 149  
Growing Degree Days 18 (Base 50)    
Moisture  
Dew Point 47 °F    
Average Humidity 54    
Maximum Humidity 83    
Minimum Humidity 25    
Precipitation  
Precipitation 0.00 in 0.00 in 0.04 in (1909)
Month to date precipitation 0.00 0.02  
Year to date precipitation 18.92 23.40  
Since 1 July precipitation 0.00  
Snow  
Snow 0.00 in - - ()
Month to date snowfall 0.0  
Since 1 June snowfall 0.0  
Since 1 July snowfall 0.0  
Snow Depth 0.00 in    
Sea Level Pressure  
Sea Level Pressure 29.90 in    
Wind  
Wind Speed 3 mph (North)    
Max Wind Speed 13 mph    
Max Gust Speed 20 mph    
Visibility 10 miles    
Events      
T = Trace of Precipitation, MM = Missing Value Source: NWS Daily Summary

Daily Weather History Graph

Daily Weather History Graph

Search for Another Location

Airport or City:

Trip Planner

Search our weather history database for the weather conditions in past years. The results will help you decide how hot, cold, wet, or windy it might be!

Date:

Astronomy

Jul. 05, 2012 Rise Set
Actual Time 5:52 AM PDT 8:41 PM PDT
Civil Twilight 5:20 AM PDT 9:13 PM PDT
Nautical Twilight 4:40 AM PDT 9:53 PM PDT
Astronomical Twilight 3:55 AM PDT 10:39 PM PDT
Moon 10:03 PM PDT (7/5) 8:10 AM PDT (7/5)
Length of Visible Light 15h 52m
Length of Day
14h 49m
Waning Gibbous, 95% of the Moon is Illuminated
Jul 5
Waning Gibbous
Jul 10
Last Quarter
Jul 18
New
Jul 26
First Quarter
Aug 1
Full

Hourly Weather History & Observations

Time (PDT) Temp. Dew Point Humidity Pressure Visibility Wind Dir Wind Speed Gust Speed Precip Events Conditions
12:56 AM 60.1 °F 46.9 °F 62% 29.83 in 10.0 mi Calm Calm - N/A   Clear
1:56 AM 57.0 °F 46.9 °F 69% 29.84 in 10.0 mi Calm Calm - N/A   Clear
2:56 AM 55.0 °F 46.0 °F 72% 29.85 in 10.0 mi Calm Calm - N/A   Clear
3:56 AM 55.0 °F 45.0 °F 69% 29.86 in 10.0 mi Calm Calm - N/A   Clear
4:56 AM 52.0 °F 45.0 °F 77% 29.86 in 10.0 mi Calm Calm - N/A   Clear
5:56 AM 51.1 °F 46.0 °F 83% 29.88 in 10.0 mi Calm Calm - N/A   Clear
6:56 AM 53.1 °F 46.0 °F 77% 29.90 in 10.0 mi Calm Calm - N/A   Clear
7:56 AM 57.0 °F 46.9 °F 69% 29.91 in 10.0 mi Calm Calm - N/A   Clear
8:56 AM 62.1 °F 48.9 °F 62% 29.91 in 10.0 mi Calm Calm - N/A   Clear
9:56 AM 68.0 °F 50.0 °F 52% 29.90 in 10.0 mi Calm Calm - N/A   Clear
10:56 AM 71.1 °F 48.9 °F 45% 29.90 in 10.0 mi Calm Calm - N/A   Clear
11:56 AM 77.0 °F 48.9 °F 37% 29.90 in 10.0 mi Variable 3.5 mph - N/A   Clear
12:56 PM 81.0 °F 48.0 °F 31% 29.89 in 10.0 mi Variable 4.6 mph - N/A   Clear
1:56 PM 84.9 °F 45.0 °F 25% 29.88 in 10.0 mi NNE 8.1 mph - N/A   Clear
2:56 PM 86.0 °F 48.0 °F 27% 29.88 in 10.0 mi North 9.2 mph - N/A   Clear
3:56 PM 84.9 °F 45.0 °F 25% 29.88 in 10.0 mi Variable 4.6 mph - N/A   Clear
4:56 PM 82.9 °F 48.9 °F 31% 29.89 in 10.0 mi NNE 10.4 mph - N/A   Clear
5:56 PM 80.1 °F 46.9 °F 31% 29.89 in 10.0 mi North 10.4 mph - N/A   Clear
6:56 PM 75.0 °F 46.9 °F 37% 29.91 in 10.0 mi North 9.2 mph - N/A   Clear
7:56 PM 70.0 °F 48.0 °F 46% 29.92 in 10.0 mi NNE 8.1 mph - N/A   Clear
8:56 PM 66.0 °F 48.0 °F 52% 29.94 in 10.0 mi North 5.8 mph - N/A   Clear
9:56 PM 63.0 °F 48.0 °F 58% 29.95 in 10.0 mi North 4.6 mph - N/A   Clear
10:56 PM 60.1 °F 48.9 °F 67% 29.96 in 10.0 mi North 3.5 mph - N/A   Clear
11:56 PM 57.9 °F 48.0 °F 70% 29.97 in 10.0 mi Calm Calm - N/A   Clear